Location: Czu?�w
(50.1404°N, 18.9919°E)
Time: 03:16:13
(UTC+00:00)

Cosmos 2360 - Pass Details

Date: 27 October 2020
Orbit: 848 x 855 km, 70.8° (Epoch: 27 November)

Event Time Altitude Azimuth Distance (km) Brightness Sun altitude
Rises 18:18:17 0° 209° (SSW) 3,413 7.6 -27.6°
Reaches altitude 10° 18:20:44 10° 210° (SSW) 2,481 6.8 -28.0°
Enters shadow 18:26:13 81° 250° (WSW) 870 4.2 -28.8°
